This is the latest recevied weather packets stored in our database for station/object WA6TJQ. If no packets are shown the sender has not sent any weather packets the latest 10 day(s).
| Time | Temp. | Humidity | Pressure | Rain* | Wind** | Luminosity | Snow |
|---|---|---|---|---|---|---|---|
| 1777996161 | 3.33° C | 88% | 1006.6 hPa | 3.81 mm | - | - | - |
| 1777995861 | 3.33° C | 88% | 1006.6 hPa | 3.81 mm | - | - | - |
| 1777995561 | 3.33° C | 88% | 1006.5 hPa | 3.81 mm | - | - | - |
| 1777995261 | 3.33° C | 88% | 1006.5 hPa | 3.81 mm | - | - | - |
| 1777994960 | 3.33° C | 88% | 1006.5 hPa | 3.56 mm | - | - | - |
| 1777994660 | 3.33° C | 88% | 1006.3 hPa | 3.56 mm | - | - | - |
| 1777994360 | 3.33° C | 88% | 1006.5 hPa | 3.56 mm | - | - | - |
| 1777994060 | 3.33° C | 88% | 1006.4 hPa | 3.3 mm | - | - | - |
| 1777993760 | 3.33° C | 88% | 1006.2 hPa | 3.3 mm | - | - | - |
| 1777993460 | 3.33° C | 88% | 1006.2 hPa | 3.3 mm | - | - | - |
| 1777993160 | 3.33° C | 88% | 1006.2 hPa | 6.1 mm | - | - | - |
| 1777992860 | 3.33° C | 88% | 1006.2 hPa | 6.1 mm | - | - | - |
| 1777992560 | 3.33° C | 88% | 1006.2 hPa | 5.59 mm | - | - | - |
| 1777992260 | 2.78° C | 88% | 1006.3 hPa | 5.33 mm | - | - | - |
| 1777991960 | 2.78° C | 88% | 1006.1 hPa | 5.33 mm | - | - | - |
| 1777991660 | 2.78° C | 88% | 1006.1 hPa | 5.33 mm | - | - | - |
| 1777991360 | 2.78° C | 87% | 1006.1 hPa | 5.08 mm | - | - | - |
| 1777991060 | 2.78° C | 88% | 1006.2 hPa | 5.08 mm | - | - | - |
| 1777990760 | 2.78° C | 87% | 1006.2 hPa | 5.08 mm | - | - | - |
| 1777990460 | 2.78° C | 88% | 1006.2 hPa | 5.08 mm | - | - | - |
| 1777989860 | 2.78° C | 88% | 1006.1 hPa | 5.08 mm | - | - | - |
| 1777989560 | 2.78° C | 88% | 1006.1 hPa | 4.83 mm | - | - | - |
| 1777989260 | 2.78° C | 88% | 1006 hPa | 4.83 mm | - | - | - |
| 1777988960 | 2.78° C | 88% | 1006 hPa | 4.57 mm | - | - | - |
| 1777988660 | 2.78° C | 88% | 1006 hPa | 4.57 mm | - | - | - |
* Rain latest hour (hover to see other rain measurements)
** Current wind speed in m/s (hover to see current wind gust speed)